Hourly Data Report for October 22, 2015

All times are specified in Local Standard Time (LST). Add 1 hour to adjust for Daylight Saving Time where and when it is observed.

HALL BEACH A
NUNAVUT

68°46'33.000" N
81°14'33.000" W
9.10 m
2402354
71293
YUX

Download Data

Hourly Data (October 2015)
Hourly Data Report for October 22, 2015
Temp Definition
°C
Dew Point Temp Definition
°C
Rel Hum Definition
%
Wind Dir Definition
10's deg

Wind Spd Definition
km/h
Visibility Definition
km
Stn Press Definition
kPa
Hmdx Definition


Wind Chill Definition


Weather Definition


TIME
00:00 Legend Double Dagger -13.1 -15.1 85 31 28 16.1 101.54   -23 LegendNANA
01:00 Legend Double Dagger -14.4 -16.0 88 26 22 16.1 101.56   -24 Snow
02:00 Legend Double Dagger -12.6 -14.3 87 30 32 16.1 101.56   -23 LegendNANA
03:00 Legend Double Dagger -13.2 -15.0 86 30 28 16.1 101.53   -23 LegendNANA
04:00 Legend Double Dagger -14.0 -15.6 88 30 30 16.1 101.56   -25 LegendNANA
05:00 Legend Double Dagger -14.2 -15.8 88 28 24 16.1 101.59   -24 LegendNANA
06:00 Legend Double Dagger -13.4 -14.9 89 27 11 9.7 101.60   -20 Snow
07:00 Legend Double Dagger -14.0 -15.5 89 27 22 11.3 101.57   -23 Snow
08:00 Legend Double Dagger -13.3 -14.9 88 27 18 16.1 101.53   -22 LegendNANA
09:00 Legend Double Dagger -11.9 -13.6 87 29 35 16.1 101.50   -23 LegendNANA
10:00 Legend Double Dagger -12.9 -14.5 88 28 9 16.1 101.54   -18 LegendNANA
11:00 Legend Double Dagger -11.5 -13.6 85 24 15 16.1 101.52   -19 LegendNANA
12:00 Legend Double Dagger -10.9 -13.0 85 29 37 16.1 101.48   -22 LegendNANA
13:00 Legend Double Dagger -10.8 -13.2 83 29 22 16.1 101.49   -19 LegendNANA
14:00 Legend Double Dagger -10.6 -13.0 83 30 41 16.1 101.46   -22 LegendNANA
15:00 Legend Double Dagger -11.3 -13.5 84 29 28 16.1 101.52   -21 LegendNANA
16:00 Legend Double Dagger -11.1 -13.7 81 27 34 16.1 101.46   -22 LegendNANA
17:00 Legend Double Dagger -14.2 -16.2 85 26 21 16.1 101.47   -23 LegendNANA
18:00 Legend Double Dagger -14.1 -16.0 86 28 22 16.1 101.46   -23 LegendNANA
19:00 Legend Double Dagger -13.3 -15.2 86 27 21 16.1 101.42   -22 LegendNANA
20:00 Legend Double Dagger -14.0 -16.5 82 24 9 16.1 101.38   -20 LegendNANA
21:00 Legend Double Dagger -16.4 -18.8 82 22 13 16.1 101.31   -24 LegendNANA
22:00 Legend Double Dagger -14.9 -17.6 80 23 17 16.1 101.25   -23 LegendNANA
23:00 Legend Double Dagger -13.6 -16.9 76 25 18 16.1 101.13   -22 LegendNANA

Notes on Data Quality.

Legend

  • E = Estimated
  • M = Missing
  • NA = Not Available
  • ‡ = Partner data that is not subject to review by the National Climate Archives
Date modified: